Main page
METAR-TAF:

METAR-TAF

Airports :

Pompano Beach Airpark

Pompano Beach, Florida, United States

latitude: 26-14-44N, longitude: 080-06-41W, elevation: 20 ft

Current weather observation

The report was made 14 minutes ago, at 12:53 UTC
Wind 5 mph from the North
Temperature 79°F
Humidity 89%
Pressure 29.96 in. Hg
Visibility: 6 miles
Broken clouds at a height of 1700 ft
Broken clouds at a height of 6000 ft
light rain, mist

METAR: KPMP 211253Z 35004KT 6SM -RA BR BKN017 BKN060 26/24 A2996 RMK AO2 SLP146 P0004 T02560244

Time: 09:07 (13:07 UTC)


TAF: missing

Weather observations and forecasts of more than 4000 airports (METAR and TAF reports).

The available stations are represented by yellow and red dots on the map.

Hover mouse over dot to see the name of the station.

Then click to see weather observations and forecasts.

To change the map : click on the green buttons with a black cross to zoom in, on the green button with a dash to zoom out, or on the green arrows for adjacent maps.


METAR-TAF: